{"data":{"norad_id":55466,"intl_designator":"2023-015T","name":"STARLINK-5628","alt_names":[],"object_type":"PAYLOAD","status":"ACTIVE","operator":null,"country":"US","launch_date":"2023-02-02","launch_site_code":"AFETR","launch_vehicle":null,"mission":null,"orbit_class":"UNKNOWN","rcs_meters":null,"size_class":null,"mass_kg":null,"dimensions":null,"purposes":["comms"],"wikipedia_slug":null,"has_3d_model":false,"image_url":null,"decayed_at":null,"tle_current":{"epoch":"2026-09-20T10:19:50.778048Z","epoch_age_seconds":106402,"freshness":"FRESH","line1":"1 55466U 23015T   26263.43044882  .00000745  00000+0  36601-4 0  9994","line2":"2 55466  43.0032 309.0516 0001143 272.1141  87.9579 15.27581862200508","mean_motion":15.27581862,"eccentricity":0.0001143,"inclination_deg":43.0032,"raan_deg":309.0516,"arg_perigee_deg":272.1141,"mean_anomaly_deg":87.9579,"bstar":3.6601e-5,"rev_number":20050,"period_min":94.266633810031,"perigee_km":482.25928761397,"apogee_km":483.82775348096,"semimajor_km":6861.1805205475,"source":"CELESTRAK","updated_at":"2026-09-21T09:00:33.230492Z"}}}